User: anonymous   Login
Location: Climax
(33.2048°N, 96.4497°W)
Time: 06:52:29
(UTC+00:00)
Language:

SL-27 R/B - Orbit

View from above orbital plane
View from above orbital plane
View from above satellite
View from above satellite

Ground track
Ground track

The orbit data is extracted from the following two-line orbital elements,

1 40354U 14084B   22139.90272288  .00008775  00000-0  19177-3 0  9993
2 40354  74.7387  14.6139 0035897 209.3186 150.6015 15.43546545416190
Epoch (UTC): 19 May 2022 21:39:55
Eccentricity: 0.0035897
inclination: 74.7387°
perigee height: 411 km
apogee height: 460 km
right ascension of ascending node: 14.6139°
argument of perigee: 209.3186°
revolutions per day: 15.43546545
mean anomaly at epoch: 150.6015°
orbit number at epoch: 41619

The dashed part of the orbit path shows where the satellite is in the earth's shadow,  

DLR